Home > Weather > Iráklion > Past weeks

Flag for Greece Weather for the Past 2 Weeks in Iráklion, Crete, Greece

Now
59 °F

Passing clouds.


Feels Like: 58 °F
Forecast: 53 / 69 °F
Wind: 8 mph from Southeast

Location: Heraklion Airport

Current Time: Feb 11, 2016 at 7:26:51 PM

Latest Report: Feb 11, 2016 at 6:50 PM


Visibility: N/A

Pressure: 30.01 "Hg

Humidity: 77%

Dew point: 52 °F

Location of IráklionLocation

Historic Weather in Iráklion — Graph

°F

Iráklion Temperature Yesterday

Maximum temperature yesterday: 64 °F (at 1:50 PM)
Minimum temperature yesterday: 46 °F (at 12:50 AM)
Average temperature yesterday: 58 °F

High & Low Weather Summary for the Past Weeks

 TemperatureHumidityPressure
High70 °F (Feb 11, 11:50 AM)94% (Jan 30, 10:50 PM)30.45 "Hg (Jan 30, 10:50 PM)
Low41 °F (Jan 28, 1:50 AM)47% (Feb 7, 1:50 AM)29.77 "Hg (Feb 5, 12:50 PM)
Average55 °F71%30.21 "Hg
* Reported Jan 27 5:20 PM — Feb 11 5:50 PM, Iráklion, Weather by CustomWeather, © 2016

Note: Actual official high and low records may vary slightly from our data, if they occured in-between our weather recording intervals... More about our weather records

Advertising

Iráklion Weather History for the Previous 24 Hours

 ConditionsComfort  
Time TempWeatherWind HumidityBarometerVisibility
5:50 PM
Thu, Feb 11
63 °FPassing clouds.14 mph83%29.98 "HgN/A
5:20 PM63 °FPassing clouds.9 mph83%29.98 "HgN/A
4:50 PM63 °FPassing clouds.10 mph83%29.98 "HgN/A
4:20 PM68 °FPassing clouds.9 mph60%29.92 "HgN/A
3:50 PM68 °FPassing clouds.7 mph60%29.92 "HgN/A
3:20 PM68 °FPassing clouds.7 mph60%29.92 "HgN/A
2:50 PM68 °FPassing clouds.7 mph60%29.92 "HgN/A
2:20 PM68 °FPassing clouds.10 mph60%29.95 "HgN/A
1:50 PM68 °FPassing clouds.6 mph60%29.95 "HgN/A
1:20 PM68 °FPassing clouds.6 mph56%29.95 "HgN/A
12:50 PM68 °FScattered clouds.8 mph56%29.95 "HgN/A
12:20 PM70 °FScattered clouds.7 mph53%29.95 "HgN/A
11:50 AM70 °FScattered clouds.7 mph53%29.95 "HgN/A
11:20 AM66 °FScattered clouds.5 mph64%29.98 "HgN/A
10:50 AM66 °FScattered clouds.7 mph64%29.98 "HgN/A
10:20 AM63 °FScattered clouds.8 mph68%29.98 "HgN/A
9:50 AM63 °FPartly sunny.10 mph68%29.98 "HgN/A
9:20 AM63 °FBroken clouds.12 mph68%29.95 "HgN/A
8:50 AM63 °FBroken clouds.9 mph68%29.95 "HgN/A
8:20 AM63 °FBroken clouds.12 mph68%29.95 "HgN/A
7:50 AM61 °FBroken clouds.12 mph68%29.95 "HgN/A
7:20 AM61 °FBroken clouds.17 mph68%29.92 "HgN/A
6:50 AM61 °FPartly cloudy.17 mph68%29.92 "HgN/A
6:20 AM61 °FPartly cloudy.21 mph63%29.92 "HgN/A
5:50 AM61 °FPartly cloudy.20 mph63%29.92 "HgN/A
5:20 AM61 °FPartly cloudy.20 mph63%29.92 "HgN/A
4:50 AM61 °FPartly cloudy.21 mph63%29.92 "HgN/A
3:50 AM61 °FPartly cloudy.17 mph59%29.92 "HgN/A
3:20 AM61 °FPartly cloudy.12 mph59%29.92 "HgN/A
2:20 AM61 °FPartly cloudy.18 mph59%29.92 "HgN/A
1:50 AM61 °FPartly cloudy.17 mph59%29.92 "HgN/A
12:50 AM61 °FPartly cloudy.15 mph63%29.95 "HgN/A
11:50 PM
Wed, Feb 10
61 °FPartly cloudy.23 mph63%29.95 "HgN/A
11:20 PM61 °FPartly cloudy.21 mph63%29.95 "HgN/A
10:50 PM61 °FPartly cloudy.20 mph63%29.95 "HgN/A
10:20 PM61 °FPartly cloudy.21 mph68%29.98 "HgN/A
9:50 PM61 °FPartly cloudy.23 mph68%29.98 "HgN/A
9:20 PM61 °FPassing clouds.18 mph68%29.98 "HgN/A
8:50 PM61 °FPassing clouds.20 mph68%29.98 "HgN/A
8:20 PM61 °FPassing clouds.20 mph68%29.98 "HgN/A
7:50 PM61 °FPassing clouds.16 mph68%29.98 "HgN/A
7:20 PM61 °FPassing clouds.22 mph63%29.98 "HgN/A
Weather by CustomWeather, © 2016

See weather overviewHow to use our weather pages